| time (UTC) | temp C | wind direction | speed KPH | gust KPH | rain 1hr cm | rain 24hr cm | rain mn cm | humidity % | barometer mb |
| 20260503224553 | 18 | 228 | 8.0 | 27.4 | 0.00 | 0.00 | 0.00 | 52 | 1013.4 |
| 20260503224522 | 18 | 205 | 8.0 | 27.4 | 0.00 | 0.00 | 0.00 | 52 | 1013.6 |
| 20260503223051 | 18 | 198 | 8.0 | 22.5 | 0.00 | 0.00 | 0.00 | 51 | 1013.5 |
| 20260503223021 | 18 | 231 | 6.4 | 22.5 | 0.00 | 0.00 | 0.00 | 51 | 1013.6 |
| 20260503221556 | 18 | 202 | 4.8 | 20.9 | 0.00 | 0.00 | 0.00 | 54 | 1013.6 |
| 20260503221523 | 18 | 167 | 4.8 | 20.9 | 0.00 | 0.00 | 0.00 | 54 | 1013.7 |
| 20260503220052 | 18 | 232 | 9.7 | 19.3 | 0.00 | 0.00 | 0.00 | 54 | 1013.8 |
| 20260503220036 | 18 | 257 | 8.0 | 19.3 | 0.00 | 0.00 | 0.00 | 53 | 1014.0 |
| 20260503214554 | 17 | 227 | 9.7 | 20.9 | 0.00 | 0.00 | 0.00 | 56 | 1013.8 |
| 20260503214512 | 17 | 229 | 11.3 | 20.9 | 0.00 | 0.00 | 0.00 | 55 | 1014.0 |
| 20260503213051 | 18 | 196 | 6.4 | 20.9 | 0.00 | 0.00 | 0.00 | 59 | 1013.9 |
| 20260503213009 | 18 | 215 | 8.0 | 20.9 | 0.00 | 0.00 | 0.00 | 59 | 1014.1 |
| 20260503211559 | 18 | 219 | 4.8 | 17.7 | 0.00 | 0.00 | 0.00 | 58 | 1013.8 |
| 20260503211507 | 18 | 212 | 4.8 | 17.7 | 0.00 | 0.00 | 0.00 | 58 | 1013.9 |
| 20260503210051 | 17 | 167 | 6.4 | 17.7 | 0.00 | 0.00 | 0.00 | 58 | 1013.9 |
| 20260503210006 | 17 | 175 | 8.0 | 17.7 | 0.00 | 0.00 | 0.00 | 57 | 1014.0 |
| 20260503204549 | 17 | 200 | 4.8 | 25.7 | 0.00 | 0.00 | 0.00 | 62 | 1014.0 |
| 20260503204506 | 17 | 266 | 4.8 | 25.7 | 0.00 | 0.00 | 0.00 | 61 | 1014.2 |
| 20260503203105 | 17 | 217 | 11.3 | 19.3 | 0.00 | 0.00 | 0.00 | 60 | 1014.3 |
| 20260503203020 | 17 | 211 | 11.3 | 19.3 | 0.00 | 0.00 | 0.00 | 60 | 1014.4 |
| 20260503201549 | 17 | 234 | 9.7 | 25.7 | 0.00 | 0.00 | 0.00 | 61 | 1014.4 |
| 20260503201512 | 17 | 232 | 9.7 | 25.7 | 0.00 | 0.00 | 0.00 | 61 | 1014.4 |
| 20260503200054 | 17 | 212 | 9.7 | 27.4 | 0.00 | 0.00 | 0.00 | 60 | 1014.3 |
| 20260503200019 | 17 | 138 | 8.0 | 27.4 | 0.00 | 0.00 | 0.00 | 59 | 1014.4 |
| 20260503194554 | 17 | 210 | 9.7 | 22.5 | 0.00 | 0.00 | 0.00 | 56 | 1014.4 |
| 20260503194512 | 17 | 207 | 11.3 | 22.5 | 0.00 | 0.00 | 0.00 | 56 | 1014.5 |
| 20260503193053 | 17 | 200 | 8.0 | 17.7 | 0.00 | 0.00 | 0.00 | 55 | 1014.4 |
| 20260503193014 | 17 | 233 | 8.0 | 17.7 | 0.00 | 0.00 | 0.00 | 55 | 1014.5 |
| 20260503191553 | 18 | 230 | 4.8 | 16.1 | 0.00 | 0.00 | 0.00 | 54 | 1014.4 |
| 20260503191518 | 18 | 209 | 6.4 | 16.1 | 0.00 | 0.00 | 0.00 | 54 | 1014.5 |
| 20260503190055 | 17 | 207 | 4.8 | 12.9 | 0.00 | 0.00 | 0.00 | 54 | 1014.5 |
| 20260503190011 | 17 | 146 | 4.8 | 12.9 | 0.00 | 0.00 | 0.00 | 53 | 1014.5 |
| 20260503184551 | 17 | 224 | 3.2 | 11.3 | 0.00 | 0.00 | 0.00 | 55 | 1014.6 |
| 20260503184507 | 17 | 240 | 4.8 | 11.3 | 0.00 | 0.00 | 0.00 | 55 | 1014.6 |
| 20260503183058 | 16 | 253 | 4.8 | 14.5 | 0.00 | 0.00 | 0.00 | 54 | 1014.6 |
| 20260503183026 | 16 | 198 | 4.8 | 14.5 | 0.00 | 0.00 | 0.00 | 55 | 1014.7 |
| 20260503181604 | 16 | 211 | 3.2 | 12.9 | 0.00 | 0.00 | 0.00 | 57 | 1014.8 |
| 20260503181518 | 16 | 145 | 3.2 | 11.3 | 0.00 | 0.00 | 0.00 | 57 | 1014.9 |
| 20260503180053 | 16 | 221 | 4.8 | 12.9 | 0.00 | 0.00 | 0.00 | 58 | 1014.8 |
| 20260503180022 | 16 | 226 | 4.8 | 12.9 | 0.00 | 0.00 | 0.00 | 59 | 1014.9 |
| 20260503174553 | 15 | 198 | 3.2 | 16.1 | 0.00 | 0.00 | 0.00 | 61 | 1015.0 |
| 20260503174519 | 15 | 189 | 3.2 | 16.1 | 0.00 | 0.00 | 0.00 | 61 | 1015.0 |
| 20260503173059 | 15 | 203 | 3.2 | 16.1 | 0.00 | 0.00 | 0.00 | 64 | 1014.8 |
| 20260503173020 | 15 | 163 | 3.2 | 16.1 | 0.00 | 0.00 | 0.00 | 64 | 1015.0 |
| 20260503171553 | 15 | 234 | 6.4 | 16.1 | 0.00 | 0.00 | 0.00 | 66 | 1014.7 |
| 20260503171513 | 15 | 221 | 6.4 | 16.1 | 0.00 | 0.00 | 0.00 | 66 | 1014.9 |
| 20260503081550 | 12 | 304 | 1.6 | 4.8 | 0.00 | 0.00 | 0.00 | 80 | 1013.1 |
| 20260503081513 | 12 | 324 | 1.6 | 4.8 | 0.00 | 0.00 | 0.00 | 80 | 1013.4 |
| 20260503071554 | 12 | 0 | 0.0 | 0.0 | 0.00 | 0.00 | 0.00 | 80 | 1013.0 |
| 20260503071527 | 13 | 344 | 0.0 | 0.0 | 0.00 | 0.00 | 0.00 | 80 | 1013.2 |
| 20260503060105 | 12 | 295 | 0.0 | 4.8 | 0.00 | 0.00 | 0.00 | 81 | 1012.7 |
| 20260503054547 | 12 | 312 | 0.0 | 3.2 | 0.00 | 0.00 | 0.00 | 81 | 1012.7 |
| 20260503054515 | 12 | 321 | 0.0 | 3.2 | 0.00 | 0.00 | 0.00 | 81 | 1012.9 |
| 20260503053050 | 12 | 270 | 1.6 | 4.8 | 0.00 | 0.00 | 0.00 | 81 | 1012.6 |
| 20260503053008 | 12 | 310 | 1.6 | 4.8 | 0.00 | 0.00 | 0.00 | 81 | 1012.8 |
| 20260503051552 | 12 | 352 | 0.0 | 4.8 | 0.00 | 0.00 | 0.00 | 82 | 1012.6 |
| 20260503051509 | 12 | 313 | 0.0 | 4.8 | 0.00 | 0.00 | 0.00 | 82 | 1012.7 |
| 20260503050049 | 12 | 327 | 0.0 | 4.8 | 0.00 | 0.00 | 0.00 | 82 | 1012.5 |
| 20260503050024 | 12 | 302 | 0.0 | 4.8 | 0.00 | 0.00 | 0.00 | 82 | 1012.6 |
| 20260503044556 | 12 | 331 | 0.0 | 3.2 | 0.00 | 0.00 | 0.00 | 81 | 1012.3 |
| 20260503044512 | 12 | 331 | 0.0 | 3.2 | 0.00 | 0.00 | 0.00 | 81 | 1012.5 |
| 20260503043054 | 12 | 0 | 0.0 | 4.8 | 0.00 | 0.00 | 0.00 | 81 | 1012.3 |
| 20260503043017 | 12 | 310 | 0.0 | 4.8 | 0.00 | 0.00 | 0.00 | 81 | 1012.5 |
| 20260503041553 | 12 | 288 | 0.0 | 4.8 | 0.00 | 0.00 | 0.00 | 80 | 1012.3 |
| 20260503041514 | 12 | 321 | 0.0 | 3.2 | 0.00 | 0.00 | 0.00 | 80 | 1012.5 |
| 20260503040100 | 12 | 0 | 0.0 | 4.8 | 0.00 | 0.00 | 0.00 | 80 | 1012.4 |
| 20260503040013 | 12 | 345 | 0.0 | 4.8 | 0.00 | 0.00 | 0.00 | 80 | 1012.4 |
| 20260503034551 | 12 | 348 | 1.6 | 4.8 | 0.00 | 0.00 | 0.00 | 79 | 1012.1 |
| 20260503034512 | 12 | 340 | 1.6 | 4.8 | 0.00 | 0.00 | 0.00 | 79 | 1012.3 |
| 20260503033107 | 13 | 314 | 1.6 | 6.4 | 0.00 | 0.00 | 0.00 | 79 | 1012.0 |
| 20260503033012 | 13 | 323 | 1.6 | 6.4 | 0.00 | 0.00 | 0.00 | 79 | 1012.1 |
| 20260503031552 | 13 | 0 | 0.0 | 1.6 | 0.00 | 0.00 | 0.00 | 79 | 1012.0 |
| 20260503031520 | 13 | 195 | 0.0 | 1.6 | 0.00 | 0.00 | 0.00 | 79 | 1012.1 |
| 20260503030051 | 13 | 0 | 0.0 | 3.2 | 0.00 | 0.00 | 0.00 | 78 | 1011.9 |
| 20260503030020 | 13 | 202 | 0.0 | 3.2 | 0.00 | 0.00 | 0.00 | 78 | 1011.8 |
| 20260503024554 | 13 | 215 | 0.0 | 6.4 | 0.00 | 0.00 | 0.00 | 77 | 1011.7 |
| 20260503024520 | 13 | 229 | 0.0 | 6.4 | 0.00 | 0.00 | 0.00 | 77 | 1011.7 |
| 20260503023102 | 13 | 241 | 6.4 | 19.3 | 0.00 | 0.00 | 0.00 | 75 | 1011.5 |
| 20260503023019 | 13 | 244 | 6.4 | 11.3 | 0.00 | 0.00 | 0.00 | 75 | 1011.5 |
| 20260503021606 | 14 | 215 | 3.2 | 14.5 | 0.00 | 0.00 | 0.00 | 73 | 1011.5 |
| 20260503021517 | 14 | 200 | 3.2 | 14.5 | 0.00 | 0.00 | 0.00 | 73 | 1011.6 |
| 20260503020049 | 15 | 252 | 4.8 | 12.9 | 0.00 | 0.00 | 0.00 | 71 | 1011.6 |
| 20260503020017 | 15 | 220 | 4.8 | 12.9 | 0.00 | 0.00 | 0.00 | 71 | 1011.6 |
| 20260503014549 | 16 | 234 | 8.0 | 16.1 | 0.00 | 0.00 | 0.00 | 68 | 1011.7 |
| 20260503014522 | 16 | 246 | 8.0 | 16.1 | 0.00 | 0.00 | 0.00 | 68 | 1011.7 |
| 20260503013053 | 16 | 247 | 4.8 | 11.3 | 0.00 | 0.00 | 0.00 | 67 | 1011.6 |
| 20260503013020 | 16 | 279 | 4.8 | 11.3 | 0.00 | 0.00 | 0.00 | 67 | 1011.6 |
| 20260503011601 | 17 | 192 | 6.4 | 16.1 | 0.00 | 0.00 | 0.00 | 65 | 1011.7 |
| 20260503011523 | 17 | 198 | 6.4 | 16.1 | 0.00 | 0.00 | 0.00 | 65 | 1011.7 |
| 20260503010058 | 17 | 240 | 6.4 | 12.9 | 0.00 | 0.00 | 0.00 | 64 | 1011.6 |
| 20260503010027 | 17 | 215 | 6.4 | 12.9 | 0.00 | 0.00 | 0.00 | 64 | 1011.7 |
| 20260503004552 | 17 | 181 | 3.2 | 16.1 | 0.00 | 0.00 | 0.00 | 63 | 1011.9 |
| 20260503004523 | 17 | 235 | 1.6 | 16.1 | 0.00 | 0.00 | 0.00 | 63 | 1011.9 |
| 20260503003101 | 18 | 148 | 3.2 | 12.9 | 0.00 | 0.00 | 0.00 | 62 | 1011.9 |
| 20260503003004 | 18 | 183 | 3.2 | 12.9 | 0.00 | 0.00 | 0.00 | 62 | 1011.9 |
| 20260503001608 | 18 | 248 | 6.4 | 14.5 | 0.00 | 0.00 | 0.00 | 63 | 1011.8 |
| 20260503001505 | 18 | 189 | 6.4 | 14.5 | 0.00 | 0.00 | 0.00 | 63 | 1011.9 |
| 20260503000112 | 19 | 160 | 4.8 | 14.5 | 0.00 | 0.00 | 0.00 | 61 | 1011.7 |
| 20260503000009 | 19 | 168 | 3.2 | 14.5 | 0.00 | 0.00 | 0.00 | 61 | 1011.9 |
| 20260502234554 | 19 | 218 | 6.4 | 12.9 | 0.00 | 0.00 | 0.00 | 59 | 1011.7 |
| 20260502234512 | 19 | 194 | 6.4 | 12.9 | 0.00 | 0.00 | 0.00 | 59 | 1011.9 |
| 20260502233056 | 19 | 215 | 6.4 | 14.5 | 0.00 | 0.00 | 0.00 | 61 | 1011.6 |
| 20260502233013 | 19 | 187 | 6.4 | 14.5 | 0.00 | 0.00 | 0.00 | 61 | 1012.0 |
| 20260502231552 | 18 | 196 | 6.4 | 16.1 | 0.00 | 0.00 | 0.00 | 62 | 1012.1 |
| 20260502231513 | 18 | 197 | 6.4 | 14.5 | 0.00 | 0.00 | 0.00 | 62 | 1012.4 |
| 20260502230048 | 18 | 204 | 4.8 | 14.5 | 0.00 | 0.00 | 0.00 | 62 | 1012.1 |
| 20260502230009 | 18 | 227 | 4.8 | 14.5 | 0.00 | 0.00 | 0.00 | 62 | 1012.5 |